TimeCDT,TemperatureF,Dew PointF,Humidity,Sea Level PressureIn,VisibilityMPH,Wind Direction,Wind SpeedMPH,Gust SpeedMPH,PrecipitationIn,Events,Conditions,WindDirDegrees,DateUTC
12:52 AM,44.1,34.0,68,29.68,-9999.0,South,8.1,-,N/A,,Unknown,180,2012-10-13 05:52:00
1:52 AM,41.0,34.0,76,29.66,-9999.0,SSW,9.2,-,N/A,,Unknown,200,2012-10-13 06:52:00
2:52 AM,42.1,33.1,70,29.65,-9999.0,SSW,4.6,-,N/A,,Unknown,210,2012-10-13 07:52:00
3:52 AM,39.9,33.1,77,29.65,-9999.0,NNW,4.6,-,N/A,,Unknown,330,2012-10-13 08:52:00
4:52 AM,36.0,32.0,86,29.64,-9999.0,North,4.6,-,N/A,,Unknown,350,2012-10-13 09:52:00
5:52 AM,33.1,30.0,89,29.65,-9999.0,NW,6.9,-,N/A,,Unknown,320,2012-10-13 10:52:00
6:52 AM,30.9,27.0,85,29.67,-9999.0,NNW,4.6,-,N/A,,Unknown,340,2012-10-13 11:52:00
7:52 AM,32.0,28.9,88,29.70,-9999.0,Calm,Calm,-,N/A,,Unknown,0,2012-10-13 12:52:00
8:52 AM,36.0,33.1,89,29.73,-9999.0,Calm,Calm,-,N/A,,Unknown,0,2012-10-13 13:52:00
9:52 AM,48.0,39.0,71,29.73,-9999.0,NW,6.9,-,N/A,,Unknown,320,2012-10-13 14:52:00
10:52 AM,54.0,39.0,57,29.74,-9999.0,WNW,10.4,21.9,N/A,,Unknown,300,2012-10-13 15:52:00
11:52 AM,57.0,39.9,53,29.75,-9999.0,NW,12.7,21.9,N/A,,Unknown,320,2012-10-13 16:52:00
12:52 PM,60.1,39.0,46,29.75,-9999.0,NW,21.9,26.5,N/A,,Unknown,320,2012-10-13 17:52:00
1:52 PM,62.1,39.0,43,29.76,-9999.0,NW,20.7,26.5,N/A,,Unknown,310,2012-10-13 18:52:00
2:52 PM,64.0,37.9,38,29.76,-9999.0,NNW,18.4,28.8,N/A,,Unknown,330,2012-10-13 19:52:00
3:52 PM,64.0,37.0,37,29.78,-9999.0,NW,17.3,26.5,N/A,,Unknown,320,2012-10-13 20:52:00
4:52 PM,61.0,37.9,42,29.81,-9999.0,North,11.5,-,N/A,,Unknown,350,2012-10-13 21:52:00
5:52 PM,57.9,37.9,47,29.84,-9999.0,NNW,9.2,-,N/A,,Unknown,330,2012-10-13 22:52:00
7:52 PM,46.9,36.0,66,29.91,-9999.0,NW,5.8,-,N/A,,Unknown,320,2012-10-14 00:52:00
8:52 PM,41.0,33.1,73,29.94,-9999.0,NW,5.8,-,N/A,,Unknown,320,2012-10-14 01:52:00
9:52 PM,41.0,34.0,76,29.94,-9999.0,NW,9.2,-,N/A,,Unknown,320,2012-10-14 02:52:00
10:52 PM,37.9,33.1,83,29.95,-9999.0,NNW,6.9,-,N/A,,Unknown,330,2012-10-14 03:52:00
11:52 PM,37.9,33.1,83,29.96,-9999.0,NW,6.9,-,N/A,,Unknown,320,2012-10-14 04:52:00